Location: Bourg-d�Oueil
(42.8588°N, 0.4991°E)
Time: 19:55:41
(UTC+00:00)

Cosmos 1980 Rocket - Pass Details

Date: 16 June 2021
Orbit: 830 x 849 km, 71.0° (Epoch: 31 July)

Event Time Altitude Azimuth Distance (km) Brightness Sun altitude
Rises 20:15:59 0° 221° (SW) 3,381 5.4 -6.3°
Reaches altitude 10° 20:18:31 10° 227° (SW) 2,447 4.7 -6.6°
Maximum altitude 20:23:54 46° 301° (WNW) 1,114 3.5 -7.4°
Drops below altitude 10° 20:29:17 10° 14° (NNE) 2,451 5.0 -8.1°
Sets 20:31:50 0° 20° (NNE) 3,386 5.7 -8.4°
